Theta_e
305 305 304 304 304 303 304 304 304 304 305 306 307 308 311 313 315 317 318 316 314 313 312 312 311 312 313 315 317 315 315 316 321 324 324 322 322 321 322 321 322 322 321 321 322 322 322
304 304 303 303 304 304 304 303 303 302 303 304 305 307 307 311 312 315 316 315 315 314 311 311 310 313 312 310 308 310 313 318 322 323 324 322 322 320 321 321 321 320 321 321 321 321 320
302 303 304 303 303 304 304 304 304 303 302 301 303 306 306 307 310 313 315 316 315 314 311 310 310 312 313 313 310 311 311 315 320 323 323 322 320 320 321 322 320 321 323 321 321 320 320
303 304 303 303 303 303 304 303 303 303 302 302 302 305 306 307 308 310 315 317 314 313 312 311 312 311 313 308 310 309 311 313 318 319 321 322 320 321 321 320 320 321 321 324 320 319 320
303 305 304 304 303 304 303 303 303 302 302 302 302 304 305 306 307 309 313 316 314 313 313 313 312 311 314 308 310 310 311 314 315 314 315 320 320 319 320 322 322 321 323 322 321 318 319
305 304 304 304 304 304 303 303 303 302 302 301 303 303 305 306 307 308 311 315 314 312 313 313 311 312 311 312 310 310 310 312 314 315 315 315 316 317 317 320 323 320 321 320 320 318 318
303 303 304 304 304 303 303 303 303 302 302 302 302 303 304 305 306 307 309 316 312 312 311 313 313 311 311 311 311 311 311 311 313 315 317 316 318 318 317 315 317 317 319 319 318 317 317
303 304 303 304 303 303 303 302 302 302 302 302 303 303 304 304 305 306 306 312 312 311 313 311 312 311 311 311 312 312 311 313 315 317 315 315 316 315 314 315 315 316 318 318 316 315 315
304 304 302 303 303 303 302 302 302 302 302 302 303 303 303 303 305 305 306 311 310 310 313 311 311 311 313 312 313 313 311 312 314 315 316 316 314 312 314 315 315 315 315 315 316 315 313
303 301 303 302 302 302 302 302 302 302 301 301 302 303 303 303 304 304 308 308 310 308 315 311 311 312 311 312 313 312 311 312 314 315 314 315 313 312 314 315 314 316 313 314 315 315 316
301 301 301 301 302 301 301 301 301 302 300 300 303 302 303 303 304 304 305 311 308 307 320 309 310 310 311 311 312 313 311 312 314 314 314 315 314 315 314 314 313 314 312 313 313 314 314
301 301 301 300 300 301 301 301 301 300 300 302 302 303 304 303 303 303 304 307 306 312 316 312 311 314 313 311 312 313 313 312 312 313 313 313 312 313 313 312 312 312 313 313 314 315 319
301 301 300 300 300 301 300 301 300 300 301 302 302 304 304 304 304 304 305 305 311 318 309 312 311 314 312 312 313 313 315 315 316 317 317 314 314 313 311 313 312 313 316 316 319 319 317
301 301 300 300 300 300 300 300 299 300 302 303 305 305 306 305 303 303 306 308 316 310 312 310 312 313 314 311 313 314 315 316 313 314 316 317 318 314 313 313 313 314 314 317 316 316 314
301 301 300 300 300 300 300 299 299 300 301 303 303 303 305 305 304 305 306 312 315 310 310 311 312 313 312 312 312 313 314 313 313 313 315 317 315 311 313 313 312 315 316 314 316 316 318
301 300 300 300 299 300 300 299 300 300 301 302 302 304 305 304 304 303 306 314 309 310 310 311 313 311 311 312 313 312 313 311 312 312 313 314 315 310 311 312 312 313 313 316 316 315 315
300 300 300 300 300 300 299 299 299 301 302 302 303 304 305 304 303 304 312 312 312 310 310 312 312 312 312 313 313 313 313 310 311 311 312 312 311 311 311 312 313 313 315 316 314 315 315
299 300 300 300 300 299 299 298 299 301 302 303 303 306 304 303 306 307 313 312 311 311 311 312 311 312 313 313 313 314 313 310 308 310 313 311 311 311 312 310 310 310 312 312 317 316 315
300 300 300 299 300 299 299 297 299 301 302 305 304 307 304 305 311 312 310 313 312 312 312 312 313 313 311 313 314 313 311 309 308 310 312 311 313 314 316 314 312 312 312 312 314 315 317
300 300 299 299 299 299 299 297 299 300 302 306 307 308 306 306 309 311 313 313 313 312 312 313 313 312 314 314 312 313 312 311 309 310 310 311 313 314 315 318 316 316 315 314 314 316 316
299 299 299 299 299 299 299 298 299 299 302 306 308 306 306 309 310 311 311 312 313 313 312 312 313 314 314 315 313 314 311 311 310 310 311 312 314 313 314 313 314 315 315 315 315 315 316
299 299 298 299 299 299 299 298 298 299 301 305 308 309 308 309 309 311 311 313 313 313 313 314 314 313 313 314 313 314 312 313 312 311 312 312 314 314 315 314 315 318 318 319 318 316 316
298 299 299 299 299 299 299 298 298 299 302 303 303 305 310 309 311 311 312 311 312 313 312 312 312 313 314 314 313 313 311 311 310 313 313 314 314 316 318 316 317 323 322 320 318 315 316
299 299 299 298 299 299 299 299 298 299 301 303 303 305 311 311 312 310 311 311 311 311 312 314 313 314 313 312 313 313 314 314 314 313 312 315 315 314 317 318 326 323 318 317 320 318 317
299 299 299 298 299 299 298 299 297 299 301 302 302 305 311 312 311 311 311 313 313 312 313 313 313 312 312 314 316 316 315 314 314 314 315 314 315 317 319 323 319 320 319 320 318 321 316
298 298 298 298 298 298 299 298 297 299 301 301 302 306 310 312 311 310 312 312 313 313 314 313 312 311 313 315 317 319 317 315 317 318 312 313 314 316 316 322 322 319 316 316 318 324 313
297 297 297 297 298 298 298 297 297 299 300 300 301 305 307 314 311 310 312 313 312 313 315 314 313 313 313 316 316 319 317 314 319 319 317 318 316 317 318 322 321 316 313 316 321 319 313
297 296 296 296 297 296 296 296 296 298 299 299 300 304 305 312 311 311 310 313 313 313 315 313 313 313 314 315 317 318 317 317 318 317 318 318 319 319 319 322 323 314 317 321 316 314 312
297 296 295 295 295 294 295 295 296 297 297 298 300 300 302 308 311 310 310 309 311 311 313 312 314 313 314 314 315 316 318 316 318 319 314 321 318 319 320 320 316 313 315 313 311 312 310
Wind_Speed
21 22 23 23 23 24 23 23 24 23 24 25 24 24 24 24 20 18 20 16 12 9 7 5 3 3 2 5 5 5 2 1 6 18 16 8 8 6 9 4 5 11 10 7 9 9 11
20 21 23 23 23 23 24 24 24 24 24 25 24 23 23 23 22 19 21 18 15 12 9 6 4 4 3 7 2 3 4 1 4 17 18 13 6 4 2 4 9 1 7 10 9 13 13
21 21 21 24 25 25 25 25 23 24 25 26 24 23 23 23 25 18 18 22 17 13 10 7 5 4 4 6 3 1 5 4 4 13 12 11 10 6 6 5 4 5 10 12 14 13 13
20 20 22 24 25 26 26 26 25 25 26 25 25 24 24 22 22 22 16 25 21 16 12 9 7 3 4 3 5 6 4 6 7 6 7 12 9 4 5 2 3 4 5 5 4 3 5
23 21 23 24 25 24 25 26 26 27 27 26 25 25 24 23 22 22 16 23 22 17 13 11 6 3 3 2 5 5 9 10 11 11 9 9 9 4 5 6 5 7 7 8 10 8 7
24 24 24 25 26 26 26 26 27 28 28 28 25 25 24 22 20 20 16 20 23 17 14 9 4 3 4 3 4 6 8 14 7 11 8 5 3 5 7 8 6 5 12 10 11 1 8
25 25 25 27 28 27 28 28 27 27 26 26 24 22 23 22 17 19 15 14 7 5 8 6 8 1 4 4 6 4 11 11 10 11 8 7 6 11 14 13 12 4 7 10 9 9 18
26 27 28 28 30 29 28 28 28 28 25 26 22 20 21 22 18 19 21 4 11 12 6 8 7 6 2 2 4 7 12 9 12 13 9 6 11 12 7 10 12 14 16 17 15 13 12
27 29 31 30 30 30 29 29 28 28 27 25 24 22 21 21 20 20 11 10 24 18 5 5 11 6 4 6 3 11 14 7 11 12 16 8 2 4 13 12 13 15 16 15 18 17 18
28 31 30 32 32 31 30 29 27 27 28 27 22 20 22 18 14 10 7 20 19 5 3 9 9 7 12 7 5 10 17 6 5 12 10 9 10 6 9 12 12 15 8 13 14 11 8
31 31 32 34 32 31 30 29 29 28 30 27 22 30 24 16 10 5 9 19 19 2 7 11 7 10 10 11 10 5 16 4 8 8 6 3 6 11 13 15 10 7 6 7 9 12 14
30 31 31 31 31 30 29 28 29 31 29 34 37 31 24 18 15 11 10 14 9 5 6 8 7 12 13 14 7 7 7 3 1 7 8 10 2 5 8 10 13 0 7 10 11 8 9
30 30 31 31 31 30 29 29 31 30 33 38 44 35 23 21 10 8 5 3 4 4 6 9 9 12 14 12 10 9 11 10 7 6 8 5 16 8 7 7 7 11 3 3 4 6 8
31 31 31 31 30 29 28 29 30 31 36 40 34 9 11 19 25 10 9 2 3 6 7 5 13 16 7 16 7 9 11 10 14 6 2 3 3 13 12 15 6 13 13 6 6 6 8
32 32 30 30 29 29 28 30 29 32 37 39 24 8 5 12 21 13 5 5 3 6 11 12 12 8 5 11 5 8 9 8 9 14 6 5 5 2 11 7 12 5 10 13 13 21 13
32 31 30 29 28 29 28 29 30 32 37 36 18 6 5 18 20 13 3 2 2 6 18 17 6 7 9 14 9 12 12 4 10 14 12 2 4 6 2 7 11 10 0 4 6 6 11
31 30 30 29 29 29 28 31 29 33 36 36 5 2 10 22 18 3 2 1 5 13 12 3 7 9 8 12 10 10 5 3 8 10 16 7 5 3 4 13 14 9 6 6 8 9 7
29 30 30 29 29 28 28 30 29 35 34 27 2 1 15 23 3 2 3 3 7 10 2 4 6 8 13 10 9 8 8 4 7 10 10 11 4 8 14 10 13 15 16 20 9 12 10
29 30 30 29 29 28 29 30 30 34 39 18 1 3 16 3 3 3 2 3 4 4 3 3 4 4 3 7 5 7 5 2 10 10 10 11 6 4 4 3 6 9 16 23 19 13 19
29 29 29 29 28 29 29 31 33 36 43 11 1 3 2 1 1 5 4 4 5 5 5 7 8 7 6 4 1 3 6 2 9 12 6 11 5 8 9 11 5 10 18 13 17 12 22
30 28 27 28 27 28 28 32 34 37 42 10 2 2 1 3 4 5 1 4 8 4 4 3 4 4 4 3 4 3 7 3 4 8 8 8 5 10 18 24 21 23 26 25 18 24 16
28 27 28 27 27 27 27 30 33 35 36 7 3 1 2 4 8 9 5 5 5 4 3 3 4 5 4 4 4 5 7 7 4 9 9 7 5 5 15 22 21 20 21 20 17 18 19
26 26 25 25 26 25 26 27 30 30 30 5 8 5 1 7 7 9 6 6 6 7 1 3 4 4 4 7 5 7 7 4 3 5 12 5 3 3 6 15 25 6 5 8 7 9 10
25 25 24 23 24 24 25 26 27 26 27 16 7 4 2 3 5 9 8 4 8 6 2 1 3 5 3 3 1 2 9 13 12 12 9 5 4 2 7 15 4 2 11 12 10 14 12
25 24 23 20 23 23 24 23 26 24 24 23 12 3 2 3 8 8 10 7 8 4 1 3 2 2 2 2 2 3 3 3 7 13 16 14 9 4 4 5 12 7 8 5 2 6 12
22 23 22 22 21 21 21 23 23 24 25 29 10 5 3 3 7 9 8 7 5 4 2 4 1 1 3 2 3 3 2 2 1 3 2 11 13 7 3 4 4 2 5 5 2 3 11
21 21 21 22 21 19 21 21 21 23 25 27 7 9 4 2 1 8 9 10 5 4 1 2 2 2 2 3 3 3 3 2 3 3 4 4 3 9 7 4 8 4 5 1 5 7 13
20 21 22 21 22 21 21 22 22 23 25 26 13 5 8 2 1 2 4 5 4 5 3 4 3 2 2 3 2 2 4 3 3 2 4 7 6 5 5 5 5 2 3 3 3 7 10
19 20 21 21 21 21 21 21 20 21 21 21 7 21 16 3 1 1 1 1 2 6 4 5 1 3 3 3 3 2 3 2 3 2 3 4 5 2 5 4 1 3 8 5 4 8 6
Wind_Direction
357 356 354 353 351 348 346 345 344 339 335 334 331 325 331 328 311 284 244 227 230 222 222 237 220 210 183 207 238 177 150 259 214 198 186 163 182 198 222 211 202 229 245 244 245 251 255
353 353 352 350 348 348 343 341 337 334 332 327 324 321 314 317 321 289 259 224 219 210 203 216 208 182 208 231 169 226 194 90 185 186 196 182 192 211 235 227 231 213 258 263 262 255 262
351 347 348 346 341 338 336 335 333 331 326 324 314 318 314 312 314 303 266 221 214 205 198 192 196 186 228 254 170 129 148 125 151 193 178 185 147 180 172 206 224 263 278 270 259 253 260
340 340 337 340 333 332 330 328 326 324 323 322 315 312 310 304 307 308 279 224 204 198 190 171 178 181 250 238 228 235 159 121 132 135 187 168 147 169 219 155 195 248 258 274 111 189 229
334 334 333 330 327 329 324 322 322 323 321 319 310 312 306 304 302 301 280 235 197 188 172 162 150 209 252 199 216 196 173 150 126 108 103 129 155 148 169 221 244 216 259 238 282 244 270
333 331 329 327 325 328 321 321 318 318 318 316 310 311 310 302 298 301 282 231 182 166 157 149 140 233 218 190 153 145 161 157 138 136 125 148 154 183 215 205 234 252 232 246 256 192 274
329 327 326 326 326 326 324 320 317 319 316 313 307 308 312 310 294 301 289 180 138 157 191 182 174 157 124 120 127 140 163 147 143 176 182 196 206 211 219 225 248 287 269 259 263 277 294
328 327 326 325 324 323 323 320 317 319 318 316 310 303 309 313 295 304 297 242 178 153 177 193 147 210 206 128 136 150 175 172 181 197 180 183 232 235 223 226 239 253 264 269 283 279 282
328 327 325 325 322 323 322 320 319 318 318 313 307 305 305 305 294 300 261 220 189 157 106 164 204 210 169 197 173 172 188 172 186 175 195 201 137 228 211 223 236 247 256 267 268 287 290
331 328 326 324 322 324 322 321 319 317 319 314 311 308 301 305 292 298 276 240 225 209 145 168 191 207 186 176 217 167 184 170 174 201 190 233 225 181 190 224 232 261 259 257 273 284 275
329 328 328 326 327 326 324 322 318 319 320 312 304 301 291 273 284 292 321 209 201 10 193 135 150 149 169 180 133 168 183 202 184 167 176 168 184 203 224 232 221 243 240 252 268 271 286
331 331 328 328 329 327 326 323 323 324 318 316 314 296 286 254 244 243 286 144 102 137 198 153 137 167 153 191 160 128 166 226 218 203 233 251 184 201 219 218 214 3 234 247 260 255 250
330 329 334 333 332 329 330 326 328 324 325 325 315 297 273 225 205 204 206 61 124 195 166 148 168 159 158 172 161 155 174 178 180 176 216 237 237 212 197 221 213 220 178 256 226 211 249
330 333 333 334 334 333 332 331 329 329 331 331 336 319 246 210 204 199 172 155 187 115 141 154 144 146 157 155 174 166 168 190 218 202 137 223 237 201 184 215 207 205 211 230 257 244 300
334 335 337 338 335 336 336 335 330 333 337 341 339 29 98 181 172 185 142 193 158 163 140 141 131 140 133 169 161 167 194 204 204 197 200 186 252 174 193 203 206 169 215 235 277 271 271
339 342 342 341 341 340 339 338 334 337 339 343 333 335 116 142 142 116 120 133 217 145 133 145 131 187 165 173 164 185 185 205 214 197 205 183 262 205 199 216 231 210 360 190 198 257 248
342 343 344 344 344 344 343 344 340 339 338 335 309 263 142 136 126 85 138 54 101 140 133 154 128 142 157 168 183 183 171 163 203 189 190 188 209 151 168 208 203 193 219 215 273 245 261
343 344 347 348 348 347 347 348 342 338 338 330 246 151 143 134 111 76 121 201 122 148 114 103 95 100 150 163 171 181 198 234 176 159 192 192 214 243 233 243 228 240 237 222 233 238 236
343 343 346 348 349 350 351 350 345 342 335 324 110 112 160 257 131 128 213 127 122 129 49 98 99 76 129 154 148 182 188 161 177 185 182 169 216 279 236 210 216 237 238 237 239 261 244
345 346 347 350 353 352 353 351 349 347 349 0 113 84 72 105 298 115 128 65 101 46 72 74 105 94 111 118 162 153 205 207 197 207 200 186 222 237 260 282 313 259 264 243 232 245 256
346 349 349 351 354 354 354 354 355 357 358 357 50 59 346 146 142 125 49 112 145 111 74 85 103 119 140 140 162 206 208 221 193 206 199 200 253 248 260 272 279 272 275 277 247 240 246
348 351 350 351 355 355 356 356 357 1 3 27 30 122 175 136 142 177 143 188 147 112 132 122 110 151 174 166 188 193 191 218 222 187 196 208 267 303 287 278 270 276 274 275 261 251 250
347 350 352 349 353 355 356 358 358 1 8 353 344 321 272 142 161 176 176 178 164 133 125 130 155 168 201 228 233 245 226 256 269 207 198 215 236 291 276 317 309 284 317 288 271 253 255
345 348 352 351 351 354 354 357 358 359 1 351 306 273 255 130 171 188 168 148 162 184 172 46 159 184 94 102 124 239 240 242 237 228 212 195 171 215 291 306 297 281 318 300 295 276 277
348 350 351 353 351 353 353 355 355 355 354 345 311 269 257 142 199 191 172 132 120 78 104 262 179 106 71 230 247 267 209 216 232 229 228 220 239 282 276 302 273 301 323 297 311 309 18
349 351 351 352 354 350 351 354 352 352 352 349 339 259 274 170 210 188 175 183 181 215 161 217 150 5 186 239 187 243 264 322 224 154 155 221 224 228 280 298 295 168 261 277 217 336 23
346 348 348 347 347 350 350 352 349 350 354 354 293 354 280 263 151 177 187 181 166 165 177 118 172 174 226 186 227 222 238 232 250 216 181 157 169 219 234 258 275 283 318 269 349 323 350
342 344 345 347 346 348 345 345 345 349 355 356 310 333 336 299 162 196 162 152 147 168 167 145 166 176 152 211 228 205 239 213 254 210 190 191 183 196 198 228 278 143 271 312 350 308 314
337 340 341 343 341 339 338 337 341 344 347 351 319 327 331 236 7 302 76 53 209 203 150 178 95 141 176 216 216 293 244 232 257 265 186 230 226 271 231 253 17 233 272 299 306 289 299